Location: Binningen
(47.7924°N, 8.7261°E)
Time: 19:55:47
(UTC+00:00)

Cosmos 1703 Rocket - Pass Details

Date: 17 May 2021
Orbit: 606 x 633 km, 82.5° (Epoch: 20 June)

Event Time Altitude Azimuth Distance (km) Brightness Sun altitude
Exits shadow 22:17:21 60° 172° (S) 716 3.5 -21.1°
Maximum altitude 22:18:08 81° 98° (E) 635 3.5 -21.2°
Drops below altitude 10° 22:22:35 10° 11° (NNE) 2,010 7.1 -21.4°
Sets 22:24:50 0° 11° (N) 2,926 8.1 -21.5°
